DUMMY SAT 2/BREEZE-M

导读 | 星芒AI

DUMMY SAT 2/BREEZE-M 是一颗由俄罗斯发射的次级载荷卫星,主要用于测试卫星部署技术和验证轨道释放机制。该卫星作为主任务的附加组件,搭载于BREEZE-M上面级推进器上,进入近地轨道后脱离。尽管其功能有限,但此类卫星在航天任务中具有重要意义,有助于提高多任务发射的效率和可靠性。DUMMY SAT 2 并不具备实际通信或观测功能,主要用于工程验证和实验目的。

基本信息
目录编号:
40355
目录名称:
DUMMY SAT 2/BREEZE-M
国际标识:
2014-085A
轨道中心:
EARTH
卫星名称:
DUMMY SAT 2/BREEZE-M
卫星全名:
--
卫星状态:
在轨 (已飞行4010 天)
发射日期:
2014-12-23 UTC
国别 :
俄罗斯(独联体) (CIS)
星等 :
--
轨道信息
数据来源 国际轨道数据 AOE轨道数据
星历时间 2025-12-14T05:18:56+0800
1天前
查看轨道信息
2025-12-15T13:00:00+0800
13小时前
查看轨道信息
半长轴 44001.05km 44000.925km
偏心率 0.0366732 0.0366689
轨道倾角 9.846° 9.850°
近地点辐角 349.816° 349.845°
升交点赤经 62.424° 62.412°
平近点角 9.380° 96.407°
近地点 36009.255km 36009.324km
远地点 39236.575km 39236.256km
周期 1530.926分钟 1530.920分钟
每日圈数 0.940607 0.940611
详细信息
使用方式:
暂无
2D轨道图
3D轨道图
轨道高度分析图
轨道倾角分析图
轨道综合分析图
查看轨道综合分析图